WB5CON Weather Reports


Display with metric or nautical units.
time (UTC)temp
F
wind
direction
speed
MPH
gust
MPH
rain 1hr
in
rain 24hr
in
rain mn
in
humidity
%
barometer
mb
20260504193007 81 233 7.0 18.0 0.00 0.00 0.00 42 1013.1
20260504185007 81 202 3.0 16.0 0.00 0.00 0.00 44 1013.5
20260504182007 80 195 4.0 16.0 0.00 0.00 0.00 44 1013.7
20260504175007 80 235 3.0 12.0 0.00 0.00 0.00 48 1014.0
20260504173007 78 236 2.0 12.0 0.00 0.00 0.00 48 1014.4
20260504172007 79 280 0.0 16.0 0.00 0.00 0.00 50 1014.5
20260504171007 78 166 3.0 18.0 0.00 0.00 0.00 49 1014.6
20260504151007 70 235 2.0 9.0 0.00 0.00 0.00 64 1016.1
20260504141007 64 177 3.0 6.0 0.00 0.00 0.00 71 1016.4
20260504082007 54 163 0.0 3.0 0.00 0.00 0.00 77 1016.0
20260504081007 54 198 1.0 3.0 0.00 0.00 0.00 76 1016.0
20260504050008 54 223 0.0 2.0 0.00 0.00 0.00 78 1017.3
20260504041007 55 233 0.0 0.0 0.00 0.00 0.00 78 1017.5
20260504035007 55 233 0.0 1.0 0.00 0.00 0.00 77 1017.7
20260504034006 55 233 0.0 1.0 0.00 0.00 0.00 78 1017.7
20260504031007 56 233 0.0 0.0 0.00 0.00 0.00 75 1017.8
20260504030007 56 233 0.0 0.0 0.00 0.00 0.00 75 1017.9
20260504022007 58 233 0.0 0.0 0.00 0.00 0.00 70 1017.6
20260504013007 61 233 0.0 0.0 0.00 0.00 0.00 62 1017.3
20260504012007 61 233 0.0 0.0 0.00 0.00 0.00 61 1017.3
20260504003007 66 233 0.0 0.0 0.00 0.00 0.00 48 1016.9
20260504001007 68 227 0.0 1.0 0.00 0.00 0.00 48 1017.0
20260504000007 69 239 1.0 7.0 0.00 0.00 0.00 41 1017.0
20260503235007 69 226 0.0 3.0 0.00 0.00 0.00 43 1017.1
20260503234007 70 228 1.0 2.0 0.00 0.00 0.00 42 1017.1
20260503233007 70 259 1.0 6.0 0.00 0.00 0.00 40 1017.3
20260503231007 71 174 1.0 9.0 0.00 0.00 0.00 40 1017.5
20260503225007 71 173 0.0 3.0 0.00 0.00 0.00 40 1017.6
20260503222007 72 224 2.0 8.0 0.00 0.00 0.00 38 1017.9
20260503213007 73 200 1.0 3.0 0.00 0.00 0.00 36 1018.3
20260503212007 73 260 2.0 12.0 0.00 0.00 0.00 38 1018.5
20260503204007 72 231 2.0 6.0 0.00 0.00 0.00 39 1019.1
20260503202007 72 235 4.0 8.0 0.00 0.00 0.00 37 1019.5
20260503200007 71 244 3.0 9.0 0.00 0.00 0.00 36 1019.9